Regional Weather Roundup
Issued by NWS

Home | Current Version | Previous Version | Text Only | Print | Product List | Glossary On
Versions: 1 2 3 4 5 6 7 8 9 10 11 12 13 14 15 16 17 18 19 20 21 22 23 24 25 26 27 28 29 30 31 32 33 34 35 36 37 38 39 40 41 42 43 44 45 46 47 48 49 50
000
ASUS44 KMEG 180000
RWRTN
TENNESSEE HOURLY STATE WEATHER ROUNDUP
NATIONAL WEATHER SERVICE MEMPHIS TN
700 PM CDT WED SEP 17 2014

TNZ002-004-019-021-049-052-054-088>092-180100-
WEST TENNESSEE

CITY           SKY/WX    TMP DP  RH WIND       PRES   REMARKS
MEMPHIS INTL   CLOUDY    73  62  68 S7        29.90F
NWS MEMPHIS      N/A     71 N/A N/A MISG        N/A
JACKSON        CLOUDY    67  61  81 E3        29.92F
DYERSBURG      MOCLDY    64  54  68 CALM      29.95S
UNION CITY     CLEAR     64  57  77 CALM      29.94F
PARIS          PTCLDY    63  57  82 CALM      29.97F
SAVANNAH       PTCLDY    68  57  68 CALM      29.97F
$$

TNZ008-025-027-028-033-062-065-066-180100-
NORTH MIDDLE TENNESSEE

CITY           SKY/WX    TMP DP  RH WIND       PRES   REMARKS
NASHVILLE      MOCLDY    66  57  72 CALM      29.96R
CLARKSVILLE    PTCLDY    66  56  70 SW6       29.97R
COOKEVILLE     CLEAR     61  59  94 CALM      29.97F
CROSSVILLE     MOCLDY    63  55  75 CALM      30.01S
$$

TNZ061-075-076-078-094-096-097-180100-
SOUTH MIDDLE TENNESSEE

CITY           SKY/WX    TMP DP  RH WIND       PRES   REMARKS
FAYETTEVILLE   CLEAR     66  55  68 N5        29.96R
WINCHESTER     CLEAR     68  57  68 E8        29.95F
COLUMBIA       CLEAR     68  59  73 CALM      29.97R
SHELBYVILLE    CLEAR     68  57  68 CALM      29.96R
$$

TNZ017-018-042-046-047-180100-
NORTHEAST TENNESSEE

CITY           SKY/WX    TMP DP  RH WIND       PRES   REMARKS
TRI CITIES     PTCLDY    65  53  65 NW3       29.96S
ELIZABETHTON   CLEAR     66  55  68 VRB3      29.97S
$$

TNZ012-013-036-069-073-074-180100-
CENTRAL EAST TENNESSEE

CITY           SKY/WX    TMP DP  RH WIND       PRES   REMARKS
KNOXVILLE      MOCLDY    68  54  60 SW5       29.95R
OAK RIDGE      PTCLDY    70  56  61 W3        29.97S
GATLINBURG     CLEAR     64  55  72 CALM      29.95S
$$

TNZ083-085-099-180100-
SOUTHEAST TENNESSEE

CITY           SKY/WX    TMP DP  RH WIND       PRES   REMARKS
CHATTANOOGA    MOCLDY    72  55  55 N7        29.96R
$$

SKY/WX REPORTED AS FAIR MEANS FEW OR NO CLOUDS BELOW
12 THOUSAND FEET.



USA.gov is the U.S. government's official web portal to all federal, state and local government web resources and services.